Hourly Data Report for October 01, 2013

All times are specified in Local Standard Time (LST). Add 1 hour to adjust for Daylight Saving Time where and when it is observed.

OTTAWA INTL A
ONTARIO

45°19'00.000" N
75°40'00.000" W
114.90 m
6106001
71628
YOW

Download Data

Hourly Data (October 2013)
Hourly Data Report for October 1, 2013
Temp Definition
°C
Dew Point Temp Definition
°C
Rel Hum Definition
%
Wind Dir Definition
10's deg

Wind Spd Definition
km/h
Visibility Definition
km
Stn Press Definition
kPa
Hmdx Definition


Wind Chill Definition


Weather Definition


TIME
00:00 Legend Double Dagger 16.8 13.2 79 22 6 24.1 100.09     LegendNANA
01:00 Legend Double Dagger 16.8 13.2 79 22 5 24.1 100.08     Mostly Cloudy
02:00 Legend Double Dagger 16.5 13.5 82 23 4 24.1 100.08     LegendNANA
03:00 Legend Double Dagger 16.5 13.8 84 22 9 24.1 100.07     LegendNANA
04:00 Legend Double Dagger 15.8 13.7 87 18 8 24.1 100.09     Mostly Cloudy
05:00 Legend Double Dagger 15.0 13.6 91 17 10 24.1 100.09     LegendNANA
06:00 Legend Double Dagger 15.1 13.7 91 19 7 24.1 100.14     LegendNANA
07:00 Legend Double Dagger 15.2 13.8 91 20 8 24.1 100.16     Mostly Cloudy
08:00 Legend Double Dagger 16.4 14.6 89 23 9 24.1 100.17     LegendNANA
09:00 Legend Double Dagger 18.2 15.3 83 23 12 24.1 100.16     LegendNANA
10:00 Legend Double Dagger 19.7 15.2 75 33 8 24.1 100.11     Mainly Clear
11:00 Legend Double Dagger 20.3 13.4 64 26 10 24.1 100.07     LegendNANA
12:00 Legend Double Dagger 20.9 13.7 63 28 9 24.1 100.00     LegendNANA
13:00 Legend Double Dagger 21.5 12.5 56 26 15 24.1 99.94     Mainly Clear
14:00 Legend Double Dagger 23.0 11.9 49 21 25 24.1 99.89 25   LegendNANA
15:00 Legend Double Dagger 23.0 11.3 47 22 19 24.1 99.83 25   LegendNANA
16:00 Legend Double Dagger 22.4 11.6 50 20 17 24.1 99.82     Clear
17:00 Legend Double Dagger 20.9 11.7 55 21 14 24.1 99.80     LegendNANA
18:00 Legend Double Dagger 18.4 11.1 62 20 10 24.1 99.80     LegendNANA
19:00 Legend Double Dagger 17.7 12.7 72 18 13 24.1 99.81     Mainly Clear
20:00 Legend Double Dagger 16.3 12.9 80 18 13 24.1 99.77     LegendNANA
21:00 Legend Double Dagger 15.4 12.4 82 18 10 24.1 99.74     LegendNANA
22:00 Legend Double Dagger 14.9 12.3 84 17 9 24.1 99.75     Clear
23:00 Legend Double Dagger 14.4 12.6 89 17 9 24.1 99.72     LegendNANA

Notes on Data Quality.

Legend

  • E = Estimated
  • M = Missing
  • NA = Not Available
  • ‡ = Partner data that is not subject to review by the National Climate Archives
Date modified: